Location: ??????
(42.0089°N, 44.3281°E)
Time: 18:59:01
(UTC+00:00)

CZ-2C R/B - Pass Details

Date: 24 October 2021
Orbit: 703 x 908 km, 98.1° (Epoch: 01 December)

Event Time Altitude Azimuth Distance (km) Brightness Sun altitude
Rises 14:37:39 0° 179° (S) 3,520 6.6 -6.3°
Reaches altitude 10° 14:40:08 10° 184° (S) 2,585 5.9 -6.7°
Maximum altitude 14:45:48 53° 261° (W) 1,099 4.3 -7.8°
Drops below altitude 10° 14:51:24 10° 338° (NNW) 2,554 5.9 -8.8°
Sets 14:53:50 0° 343° (NNW) 3,474 6.5 -9.3°
